sat.trackr.live / text

‹ back to catalog

PRSC-EO1

NORAD 62725 · 2025-012A

PAYLOAD ACTIVE UNKNOWN

§ Identity

Operator
Country
PAKI
Launch date
2025-01-17
Launch site
JSC
Launch vehicle
Mass (kg)
RCS (m²)

Purposes: earth_obs

External: N2YO · Heavens-Above · Gunter

§ Orbital elements

Epoch: 2026-09-19T22:30:28.347840Z

Period
94.88 min
Inclination
97.4143°
Eccentricity
0.0003836
Mean motion
15.17662733 rev/d
Perigee alt
510.3 km
Apogee alt
515.5 km
Semi-major
6,891.0 km
B*
2.1732e-4
RAAN
333.4962°
Arg perigee
312.7219°
Mean anomaly
47.3692°
Rev number
9,256

§ Raw data

PRSC-EO11 62725U 25012A   26262.93782810  .00004310  00000+0  21732-3 0  99932 62725  97.4143 333.4962 0003836 312.7219  47.3692 15.17662733 92561

JSON: /api/v1/satellites/62725 · /tle

For live sub-satellite position, see the globe view (requires WebGL).

§ Visibility from observer

Set your observer location to see the next 7 days of passes ≥ 10°. The values pass through the URL so the page stays shareable.

No JS? Fill the form by hand. The geolocation button needs JavaScript.